COSMOS 2251 DEB, 35440

Orbit data source: Space-Track

COSMOS 2251 DEB, 35440 is space debris in LEO originally from a launch on Wed, 16 Jun 1993 UTC launched from the Plesetsk Missile And Space Complex (PKMTR). The debris from Iridium 33, an American commercial communications satellite, has been tracked extensively since its accidental collision with the defunct Russian satellite Cosmos 2251 in 2009. This event, occurring at high speed in low Earth orbit (LEO), generated thousands of pieces of space debris, significantly increasing the risk of further collisions. The Iridium 33 debris cloud has impacted space traffic management and orbital debris mitigation strategies, making it a subject of ongoing study in space situational awareness.

Loading next visibility...
Identifier
35440, 1993-036AKJ
Orbit
LEO
Country
Flag of CISCIS
Related business
Manufacturer
Unknown
Mission
Spacecraft
Bus & Motor
Unknown
Mass
Unknown
Launch date (UTC)
1993-06-16 (33 years ago)
Launch vehicle
Unknown
Launch site
Plesetsk Missile And Space Complex (PKMTR)
Object type
Payload
Rocket body
Debris
Shape & HBR
Unknown shape, 0.1 m
Radar Cross Section
Small (<0.1 m²)

Expand to show TLE details & history
Last TLE update: 3 days ago

TLE from 3 days ago
0 COSMOS 2251 DEB
1 35440U 93036AKJ 26118.25511297  .00002465  00000-0  40527-3 0  9995
2 35440  74.0138 302.8960 0067995  50.4624 310.2528 14.69643920707702
Epoch: 2026-04-28T06:07Z
TLE epoch observation values (Epoch: 2026-04-28T06:07:21.760Z)
Latitude
-0.00003°
Longitude
-5.17773°
Altitude
634.109 km
Speed
7.558 km/s
True Right ascension
20h 11m 35s
True Declination
0° 00' 00"
Sunlit
Object was in daylight at epoch
Visualization orbit readout
Latitude
Unknown
Longitude
Unknown
Altitude
Unknown
Speed
Unknown
Apparent Right ascension
Unknown
Apparent Declination
Unknown
Sunlit
N/A
Visualization observer readout
Local Sidereal Time
18:31:30
Azimuth
Unknown
Elevation
Unknown
Doppler factor
Unknown
Orbital elements
Apogee altitude
707.648 km
Perigee altitude
611.939 km
Semi-major axis
7,037.931 km
Eccentricity
0.0068
Inclination
74.0138°
RAAN
302.896°
Arg. of periapsis
50.4624°
True anomaly
309.65487°
Mean anomaly
310.2528°
Eccentric anomaly
309.95416°
Mean motion
3.676 °/min
Orbital period
97.93 mins
BSTAR
0.00040527
Loading maneuver chart data...
Computing Atmospheric mass density...

Documentation

Showing up to 5 results
|